SCP
1 1 1 1 1 2 2 2 2 2 2 2 2 2 2 2 2 2 1 1 1 1 1 1 1 1 1 1 1 1 1 1 1 1 1 1 1 1 1 1 1 1 0
1 1 1 1 1 2 2 2 2 2 2 2 2 1 1 1 1 1 1 1 1 1 1 1 1 1 1 1 1 1 1 1 1 1 1 1 1 1 1 1 1 1 1
1 1 1 2 2 2 2 2 2 2 2 2 2 1 1 1 1 1 1 1 1 1 1 1 1 1 1 1 1 1 1 1 1 1 1 1 1 1 1 1 1 1 1
1 1 2 2 2 2 2 1 2 2 2 2 2 2 1 1 1 1 1 1 1 1 1 1 1 1 1 1 1 1 1 1 1 1 1 0 0 1 1 1 1 1 1
2 2 2 2 2 2 2 1 1 2 2 2 2 2 2 1 1 1 1 1 1 1 1 1 1 1 1 1 1 1 1 1 1 0 0 0 0 0 1 1 1 1 1
2 2 2 2 2 2 2 2 2 2 2 2 2 2 2 2 1 1 1 1 1 1 1 1 1 1 1 1 1 1 1 1 0 0 0 0 0 1 1 1 1 1 1
2 2 2 2 2 2 2 2 2 2 1 1 2 2 2 2 1 1 1 1 1 1 1 1 1 1 1 1 1 1 1 0 0 0 0 0 0 1 1 1 1 1 1
2 2 2 2 2 2 2 2 2 2 1 1 1 1 2 2 2 1 1 1 1 1 1 1 1 1 1 1 0 0 0 0 0 0 0 0 0 1 1 1 1 1 1
3 3 2 2 2 2 2 2 2 1 1 1 1 1 1 1 2 2 1 1 1 1 1 1 1 1 1 1 0 0 0 0 0 0 0 0 0 1 1 1 2 2 1
3 3 2 2 2 2 2 1 1 1 1 1 1 1 1 1 1 1 1 1 1 1 1 1 1 1 1 1 1 0 0 0 0 0 0 0 0 1 1 1 2 2 2
2 2 2 1 1 1 1 1 1 1 1 1 1 1 1 1 1 1 1 1 1 1 1 1 1 1 1 1 1 0 0 0 0 0 0 0 1 1 1 1 1 2 2
1 1 1 1 1 1 1 1 1 1 1 1 0 0 0 0 0 1 1 1 1 1 1 1 1 1 1 1 0 0 0 0 0 0 0 0 1 1 1 1 1 1 1
1 1 1 1 1 1 1 1 1 1 1 0 0 0 0 0 0 1 1 1 1 1 1 1 1 1 1 1 0 0 0 0 0 0 0 0 1 1 1 0 0 1 1
1 1 1 1 1 1 1 1 0 0 0 0 0 0 0 0 0 1 1 1 1 1 1 1 1 1 1 1 0 0 0 0 0 0 0 0 1 1 0 0 0 0 0
1 1 1 1 1 1 0 0 0 0 0 0 0 0 0 0 0 0 1 1 1 1 1 1 1 1 1 0 0 0 0 0 0 0 0 0 0 1 0 0 0 0 0
2 1 1 1 1 1 0 0 0 0 0 0 0 0 0 0 0 0 0 1 1 1 1 1 1 1 1 0 0 0 0 0 0 0 0 0 0 0 0 0 0 0 0
2 2 1 1 1 1 0 0 0 0 0 0 0 0 0 0 0 0 0 0 1 1 1 1 1 1 1 0 0 0 0 0 0 0 0 0 0 0 0 0 0 0 0
2 2 2 2 1 1 0 0 0 0 0 0 0 0 0 0 0 0 0 0 0 1 1 1 1 1 1 1 0 0 0 0 0 0 0 0 0 0 0 0 0 0 0
2 3 2 2 1 1 0 0 0 0 0 0 0 0 0 0 0 0 0 0 0 0 0 1 1 1 1 1 1 0 0 0 0 0 0 0 0 0 0 0 0 0 0
2 2 2 2 1 1 0 0 0 0 0 0 0 0 0 0 0 0 0 0 0 0 0 0 1 1 1 1 1 1 0 0 0 0 0 0 0 0 0 0 0 0 0
1 1 1 1 1 0 0 0 0 0 0 0 0 0 0 0 0 0 0 0 0 0 0 0 0 0 1 1 0 0 0 0 0 0 0 0 0 0 0 0 0 0 0
0 0 0 0 0 0 0 0 0 0 0 0 0 0 0 0 0 0 0 0 0 0 0 0 0 0 0 0 0 0 0 0 0 0 0 0 0 0 0 0 0 0 0
0 0 0 0 0 0 0 0 0 0 0 0 0 0 0 0 0 0 0 0 0 0 0 0 0 0 0 0 0 0 0 0 0 0 0 0 0 0 0 0 0 0 0
0 0 0 0 0 0 0 0 0 0 0 0 0 0 0 0 0 0 0 0 0 0 0 0 0 0 0 0 0 0 0 0 0 0 0 0 0 0 0 0 0 0 0
0 0 0 0 0 0 0 0 0 0 0 0 0 0 0 0 0 0 0 0 0 0 0 0 0 0 0 0 0 0 0 0 0 0 0 0 0 0 0 0 0 0 0
0 0 0 0 0 0 0 0 0 0 0 0 0 0 0 0 0 0 0 0 0 0 0 0 0 0 0 0 0 0 0 0 0 0 0 0 0 0 0 0 0 0 0
Wind_Speed
4 5 11 12 12 12 13 12 12 12 12 12 12 12 12 12 12 11 11 11 10 10 10 10 10 10 11 10 10 9 9 8 8 8 8 7 7 6 6 5 4 3 5
7 7 12 12 13 13 13 13 13 12 12 12 12 12 12 12 12 11 11 10 10 10 10 10 10 10 10 10 10 9 8 8 8 7 7 6 6 6 5 5 4 2 4
9 8 10 13 13 13 13 13 13 13 12 12 12 12 12 11 11 11 11 10 10 10 10 10 10 9 10 9 9 9 8 8 7 7 6 3 3 5 5 5 4 3 3
10 8 9 13 14 14 14 13 13 13 12 12 12 12 11 11 11 11 11 10 10 10 10 9 9 9 9 8 8 9 9 8 8 7 4 3 2 4 4 4 4 4 3
8 7 10 14 14 14 14 13 13 13 12 12 12 12 11 11 11 11 10 10 10 10 10 10 9 9 8 8 8 8 8 8 8 6 3 2 2 4 4 3 4 4 3
8 7 9 14 14 14 13 13 13 13 13 13 12 12 12 11 11 11 10 10 10 10 9 9 9 9 8 8 8 8 8 8 7 4 3 3 2 4 4 4 4 3 3
8 6 9 14 14 14 13 13 13 13 12 12 12 12 11 11 11 10 10 10 10 9 9 9 9 9 9 8 8 8 8 8 5 3 3 3 3 5 5 4 4 4 3
9 7 8 13 14 13 13 13 13 12 12 12 11 11 11 11 10 10 10 9 9 9 9 8 8 8 9 8 8 9 9 8 5 4 3 2 4 6 6 5 5 5 4
8 7 6 6 9 12 13 12 12 12 12 11 11 11 10 10 10 10 9 9 8 8 8 8 8 8 8 8 8 9 9 9 5 3 3 2 5 5 5 5 5 5 5
7 7 6 6 6 5 6 10 11 11 11 11 11 10 10 9 9 9 8 8 8 7 7 7 7 7 8 7 7 8 8 7 4 3 2 3 5 5 5 5 5 5 5
7 5 6 6 5 5 5 7 8 9 9 9 8 9 7 4 3 4 6 8 8 7 7 7 7 7 7 7 7 8 6 3 3 2 2 4 6 6 6 6 6 6 6
8 6 5 6 5 4 4 4 3 4 4 4 3 4 3 3 3 4 7 8 8 8 7 7 7 6 5 3 4 6 2 3 3 2 3 6 6 6 7 7 7 7 7
9 7 6 6 5 5 4 3 2 2 2 3 3 3 3 3 2 3 2 3 4 5 3 4 4 3 2 2 2 2 2 2 2 2 3 7 7 8 8 8 8 8 8
9 8 6 6 5 5 4 3 3 2 2 2 2 3 3 2 2 2 2 2 2 2 2 2 2 2 2 2 2 2 2 2 2 2 3 7 8 8 9 9 9 10 10
9 7 7 7 7 5 4 3 3 2 2 2 2 2 3 3 2 2 1 2 2 1 2 2 2 2 2 2 2 2 2 2 2 2 3 7 8 9 9 10 10 11 11
9 8 7 7 7 6 4 4 3 3 2 2 2 2 3 3 2 2 1 1 1 1 1 1 1 1 1 1 2 2 2 2 2 2 2 4 7 9 9 10 11 12 13
10 9 8 8 7 7 6 4 3 3 3 2 2 2 3 3 2 2 1 1 1 1 1 1 2 2 2 2 3 3 2 2 2 3 3 2 3 7 10 11 12 13 14
10 10 9 8 7 6 5 4 3 3 3 2 2 2 2 2 2 2 1 1 1 1 1 1 1 2 2 2 3 3 3 2 3 3 3 3 2 3 6 11 13 14 14
11 11 9 8 8 7 5 4 3 3 3 2 2 2 2 2 2 2 1 1 1 1 1 2 2 1 2 3 3 3 3 3 3 3 3 3 3 4 4 8 12 14 15
9 10 9 8 7 6 5 4 3 3 2 1 1 2 2 2 2 2 1 1 1 1 2 2 2 2 2 3 4 4 3 3 3 3 3 3 4 4 4 5 5 8 14
8 9 9 9 7 6 5 4 3 2 1 1 1 1 2 2 2 2 1 1 1 1 1 1 2 2 3 2 2 4 3 3 3 3 3 3 4 4 4 5 4 4 6
10 9 9 9 8 7 5 4 3 3 1 1 1 1 1 1 1 1 1 1 1 1 1 2 1 1 2 2 1 3 4 4 3 4 3 3 4 4 5 6 5 5 5
10 10 10 9 8 7 6 4 4 3 2 1 1 0 0 1 1 1 1 0 1 0 1 1 1 1 2 2 0 0 1 4 5 3 4 4 4 4 5 5 6 6 6
10 9 9 9 8 7 7 6 7 4 3 2 1 0 1 0 0 0 0 0 0 0 1 2 1 1 1 2 2 1 2 3 3 6 4 3 5 6 6 6 6 6 6
9 8 8 8 7 6 6 7 6 4 2 1 1 1 0 1 0 0 0 0 1 1 1 2 2 2 1 2 2 2 3 3 3 4 8 7 5 4 5 6 5 5 6
7 7 7 8 6 6 6 6 6 5 4 3 1 1 0 1 1 1 1 1 1 1 2 2 2 2 2 3 3 2 3 3 3 4 6 8 8 6 6 5 5 5 5
Wind_Direction
150 153 129 125 121 116 112 108 104 102 101 99 98 96 94 94 92 92 90 87 85 82 80 78 76 74 72 70 70 72 72 70 67 67 66 66 69 71 79 83 79 71 85
146 142 128 124 121 117 113 108 105 103 100 100 100 98 95 94 92 92 92 88 85 83 80 77 75 72 69 67 65 66 68 67 64 59 57 55 56 61 69 82 84 80 89
134 134 128 123 119 116 112 109 105 103 101 100 99 98 96 95 93 91 90 87 83 80 79 76 73 71 67 64 62 60 58 55 53 51 49 37 39 54 60 70 72 66 80
129 129 127 122 120 117 114 111 107 104 102 101 100 98 96 95 92 90 86 84 81 79 77 74 70 70 68 64 61 55 51 49 48 46 43 29 27 48 51 54 55 60 62
120 123 127 121 120 118 115 112 109 106 103 101 100 97 95 92 89 87 85 83 80 77 74 70 67 64 63 61 57 51 47 48 44 39 33 24 14 29 37 41 43 53 55
116 118 124 121 119 117 115 112 109 106 105 102 98 95 92 90 89 86 84 82 79 77 74 70 65 62 60 57 53 49 47 44 41 31 23 12 7 23 29 36 39 42 47
121 118 122 119 118 117 115 112 110 109 107 104 101 97 93 91 89 87 83 81 78 75 73 69 66 64 59 56 51 49 44 39 39 32 24 12 12 26 28 29 29 27 19
124 119 120 118 116 115 115 113 111 110 108 105 102 98 94 91 89 86 83 82 79 75 72 69 66 63 57 54 50 46 38 34 34 30 24 10 17 25 29 27 21 11 0
118 115 109 113 114 114 114 111 110 108 106 103 99 96 92 88 86 85 81 79 76 72 68 66 63 59 54 50 48 44 39 34 34 23 16 6 15 19 17 17 12 5 359
115 115 111 106 103 105 109 109 108 106 103 101 98 93 88 84 82 78 74 72 70 67 64 61 59 54 50 46 44 38 32 29 25 13 359 356 6 2 360 358 353 349 345
125 122 120 115 110 108 109 108 104 102 100 97 95 93 85 67 65 65 62 64 64 62 59 56 53 51 46 41 37 32 28 19 9 4 347 354 355 350 348 347 342 338 332
150 146 137 131 126 118 109 94 88 88 90 87 86 87 80 73 66 64 55 58 55 52 50 48 46 45 41 29 26 28 23 8 8 352 349 350 346 343 341 338 334 328 323
156 152 149 142 133 122 112 108 93 87 85 85 90 90 83 71 62 54 47 38 34 38 31 25 27 23 25 22 14 12 6 6 352 336 339 343 339 337 335 332 328 324 319
154 155 152 145 134 128 121 116 113 105 99 95 94 97 91 79 65 57 51 39 36 29 29 20 18 12 13 7 5 0 352 344 335 329 326 336 336 334 332 329 325 322 318
155 157 155 147 141 135 125 127 118 116 115 113 100 97 104 100 88 69 58 47 35 31 32 19 15 10 6 356 348 346 330 322 322 327 324 328 330 331 330 328 325 322 319
163 160 155 149 146 139 135 132 132 128 120 107 102 107 106 109 105 87 67 50 30 22 21 23 9 2 344 336 330 322 310 311 315 315 315 321 328 331 331 329 326 322 318
165 159 157 152 145 141 137 136 131 132 122 116 113 108 107 108 108 100 76 44 3 7 19 19 8 7 350 339 323 310 304 302 308 302 304 308 314 324 326 325 323 320 317
160 159 161 156 147 143 138 133 129 124 119 121 116 106 107 108 107 94 77 34 360 21 20 7 3 356 338 327 311 301 303 299 296 294 297 304 306 308 316 319 319 317 316
165 161 159 152 150 146 136 127 121 117 116 120 113 108 109 104 103 100 86 26 24 32 14 352 358 341 325 321 304 297 299 295 291 294 296 297 297 299 301 312 317 317 316
162 158 155 151 150 140 127 111 100 94 99 105 115 120 114 104 97 91 78 35 36 37 10 358 340 334 313 308 310 309 298 288 288 284 284 294 301 301 304 304 303 308 313
154 155 157 154 154 147 142 141 138 143 139 119 122 120 113 100 90 85 65 36 34 37 354 347 339 336 330 328 335 323 310 294 289 281 283 289 297 297 296 295 292 293 300
161 161 161 160 159 159 158 152 143 139 140 147 119 87 94 88 82 80 79 47 28 24 1 350 353 337 330 354 356 336 329 323 302 292 288 283 289 293 295 299 293 291 293
165 168 166 165 161 157 146 124 105 78 64 56 51 33 34 78 79 91 99 66 8 33 306 308 304 323 313 322 350 157 311 293 307 285 273 279 286 293 291 291 289 290 292
175 170 162 161 158 154 148 146 148 149 159 190 188 198 325 53 79 63 71 14 311 313 293 290 302 278 272 301 310 259 233 247 285 301 298 281 284 285 283 292 291 286 285
170 164 159 153 152 152 153 154 152 149 157 143 123 122 337 328 321 308 273 289 290 294 287 294 301 288 266 262 268 277 283 276 251 267 293 303 299 277 276 276 277 281 286
155 152 152 151 152 153 152 153 155 155 149 138 146 170 257 307 305 301 306 288 282 288 286 281 279 280 274 271 267 258 258 265 268 264 278 294 297 293 286 274 270 275 280